FW5773 Weather Reports


Display with metric or nautical units.
time (UTC)temp
F
wind
direction
speed
MPH
gust
MPH
rain 1hr
in
rain 24hr
in
rain mn
in
humidity
%
barometer
mb
20260503004759 56 43 0.0 0.0 0.00 0.00 0.00 81 1015.7
20260503004221 56 43 0.0 0.0 0.00 0.00 0.00 81 1015.8
20260503003805 56 43 0.0 0.0 0.00 0.00 0.00 82 1015.8
20260503003221 55 43 0.0 0.0 0.00 0.00 0.00 82 1015.8
20260503002808 55 43 0.0 0.0 0.00 0.00 0.00 81 1015.9
20260503002226 56 43 0.0 0.0 0.00 0.00 0.00 81 1015.9
20260503001725 56 43 0.0 0.0 0.00 0.00 0.00 81 1015.9
20260503001232 56 43 0.0 0.0 0.00 0.00 0.00 81 1015.8
20260503000759 56 43 0.0 0.0 0.00 0.00 0.00 80 1015.9
20260503000249 56 43 0.0 0.0 0.00 0.00 0.00 80 1015.9
20260502235722 56 13 0.0 0.0 0.00 0.00 0.00 80 1016.0
20260502235221 56 13 0.0 0.0 0.00 0.00 0.00 80 1016.1
20260502234720 56 349 0.0 0.0 0.00 0.00 0.00 80 1016.1
20260502234248 56 278 0.0 0.0 0.00 0.00 0.00 81 1015.9
20260502233733 56 278 0.0 0.0 0.00 0.00 0.00 81 1016.1
20260502233231 56 278 0.0 0.0 0.00 0.00 0.00 81 1015.9
20260502232738 56 278 0.0 0.0 0.00 0.00 0.00 80 1016.0
20260502232234 56 278 0.0 0.0 0.00 0.00 0.00 80 1016.1
20260502231733 57 278 0.0 0.0 0.00 0.00 0.00 78 1016.1
20260502231240 57 278 0.0 0.0 0.00 0.00 0.00 77 1016.1
20260502230800 57 278 0.0 1.0 0.00 0.00 0.00 78 1016.1
20260502230237 57 278 0.0 1.0 0.00 0.00 0.00 79 1016.2
20260502225723 57 278 0.0 1.0 0.00 0.00 0.00 78 1016.1
20260502225222 57 278 0.0 1.0 0.00 0.00 0.00 78 1016.1
20260502224728 58 278 0.0 1.0 0.00 0.00 0.00 76 1016.0
20260502224227 58 278 0.0 1.0 0.00 0.00 0.00 77 1016.0
20260502223755 58 21 0.0 2.0 0.00 0.00 0.00 76 1016.1
20260502223242 58 21 0.0 2.0 0.00 0.00 0.00 75 1016.1
20260502222736 58 23 1.0 2.0 0.00 0.00 0.00 76 1015.9
20260502222242 58 23 0.0 1.0 0.00 0.00 0.00 75 1016.0
20260502221721 58 23 0.0 1.0 0.00 0.00 0.00 75 1016.0
20260502221247 58 23 0.0 1.0 0.00 0.00 0.00 75 1015.9
20260502220726 58 336 0.0 0.0 0.00 0.00 0.00 74 1016.0
20260502220240 58 336 0.0 0.0 0.00 0.00 0.00 75 1016.0
20260502215726 58 233 0.0 0.0 0.00 0.00 0.00 74 1016.0
20260502215225 58 233 0.0 0.0 0.00 0.00 0.00 73 1016.0
20260502214732 58 240 0.0 0.0 0.00 0.00 0.00 74 1016.1
20260502214251 58 281 0.0 0.0 0.00 0.00 0.00 73 1016.1
20260502213736 58 281 0.0 0.0 0.00 0.00 0.00 73 1016.1
20260502213236 59 332 0.0 0.0 0.00 0.00 0.00 71 1016.0
20260502212742 59 332 0.0 0.0 0.00 0.00 0.00 70 1016.1
20260502212221 59 20 0.0 0.0 0.00 0.00 0.00 72 1016.1
20260502211720 59 20 0.0 0.0 0.00 0.00 0.00 72 1016.0
20260502211248 59 20 0.0 0.0 0.00 0.00 0.00 72 1016.1
20260502210726 60 20 0.0 0.0 0.00 0.00 0.00 71 1016.0
20260502210304 60 20 0.0 0.0 0.00 0.00 0.00 69 1015.9
20260502205736 60 295 0.0 0.0 0.00 0.00 0.00 67 1016.0
20260502205235 60 295 0.0 0.0 0.00 0.00 0.00 66 1015.9
20260502204734 60 295 0.0 1.0 0.00 0.00 0.00 66 1015.9
20260502204240 60 295 0.0 1.0 0.00 0.00 0.00 67 1015.9
20260502203739 60 250 0.0 0.0 0.00 0.00 0.00 66 1015.9
20260502203247 60 250 0.0 0.0 0.00 0.00 0.00 66 1015.9
20260502202723 60 250 0.0 0.0 0.00 0.00 0.00 66 1015.9
20260502202221 60 250 0.0 0.0 0.00 0.00 0.00 67 1016.0
20260502201728 60 250 0.0 0.0 0.00 0.00 0.00 67 1015.9
20260502201227 60 250 0.0 1.0 0.00 0.00 0.00 66 1016.0
20260502200727 60 250 0.0 1.0 0.00 0.00 0.00 67 1016.0
20260502200246 60 250 0.0 1.0 0.00 0.00 0.00 67 1016.0
20260502195731 61 250 0.0 0.0 0.00 0.00 0.00 67 1015.9
20260502195238 61 250 0.0 1.0 0.00 0.00 0.00 67 1015.9
20260502194737 61 251 0.0 2.0 0.00 0.00 0.00 67 1015.8
20260502194237 62 251 1.0 2.0 0.00 0.00 0.00 65 1015.8
20260502193744 63 262 0.0 0.0 0.00 0.00 0.00 64 1015.7
20260502193305 63 262 0.0 0.0 0.00 0.00 0.00 64 1015.7
20260502192723 63 262 0.0 0.0 0.00 0.00 0.00 64 1015.7
20260502192222 63 262 0.0 1.0 0.00 0.00 0.00 64 1015.6
20260502191730 64 262 0.0 1.0 0.00 0.00 0.00 63 1015.6
20260502191228 64 262 0.0 0.0 0.00 0.00 0.00 63 1015.6
20260502190727 64 262 0.0 0.0 0.00 0.00 0.00 64 1015.6
20260502190246 65 262 0.0 0.0 0.00 0.00 0.00 65 1015.7
20260502185731 65 262 0.0 0.0 0.00 0.00 0.00 65 1015.6
20260502185257 66 262 0.0 0.0 0.00 0.00 0.00 64 1015.6
20260502184735 66 262 0.0 0.0 0.00 0.00 0.00 64 1015.4
20260502184242 67 262 0.0 0.0 0.00 0.00 0.00 62 1015.5
20260502183721 68 262 0.0 0.0 0.00 0.00 0.00 61 1015.4
20260502183246 68 262 0.0 1.0 0.00 0.00 0.00 60 1015.6
20260502182746 68 262 0.0 1.0 0.00 0.00 0.00 60 1015.5
20260502182230 69 262 0.0 1.0 0.00 0.00 0.00 59 1015.5
20260502181728 69 262 0.0 0.0 0.00 0.00 0.00 59 1015.4
20260502181233 70 262 0.0 0.0 0.00 0.00 0.00 58 1015.4
20260502180732 70 262 0.0 0.0 0.00 0.00 0.00 57 1015.4
20260502180250 71 262 0.0 1.0 0.00 0.00 0.00 55 1015.4
20260502170247 74 263 1.0 4.0 0.00 0.00 0.00 51 1015.6
20260502164245 74 270 3.0 6.0 0.00 0.00 0.00 51 1015.6
20260502163724 74 242 4.0 8.0 0.00 0.00 0.00 51 1015.6
20260502163307 74 262 5.0 8.0 0.00 0.00 0.00 50 1015.7
20260502162724 74 243 4.0 8.0 0.00 0.00 0.00 49 1015.8
20260502162245 75 232 5.0 8.0 0.00 0.00 0.00 47 1015.8
20260502161730 75 243 4.0 8.0 0.00 0.00 0.00 46 1015.9
20260502161236 75 267 6.0 8.0 0.00 0.00 0.00 43 1015.9
20260502160736 76 241 4.0 8.0 0.00 0.00 0.00 42 1016.0
20260502160254 76 238 5.0 8.0 0.00 0.00 0.00 44 1016.1
20260502152230 75 237 3.0 7.0 0.00 0.00 0.00 45 1016.3
20260502151729 75 200 5.0 7.0 0.00 0.00 0.00 45 1016.4
20260502151233 76 238 4.0 7.0 0.00 0.00 0.00 46 1016.3
20260502150728 75 255 5.0 7.0 0.00 0.00 0.00 45 1016.4
20260502150247 76 228 4.0 7.0 0.00 0.00 0.00 47 1016.4
20260502130726 79 212 0.0 5.0 0.00 0.00 0.00 44 1017.8
20260502130236 78 60 0.0 5.0 0.00 0.00 0.00 45 1018.0
20260502123759 77 41 0.0 2.0 0.00 0.00 0.00 48 1018.3
20260502123223 77 142 0.0 2.0 0.00 0.00 0.00 47 1018.4
20260502122721 76 198 1.0 5.0 0.00 0.00 0.00 46 1018.5
20260502122248 76 212 2.0 7.0 0.00 0.00 0.00 50 1018.6
20260502121726 76 270 3.0 7.0 0.00 0.00 0.00 47 1018.6
20260502121230 75 188 0.0 4.0 0.00 0.00 0.00 51 1018.7
20260502120729 75 160 1.0 4.0 0.00 0.00 0.00 48 1018.9
20260502120249 74 278 0.0 5.0 0.00 0.00 0.00 50 1018.8
20260502115729 74 197 3.0 5.0 0.00 0.00 0.00 49 1019.0
20260502115256 74 187 2.0 5.0 0.00 0.00 0.00 49 1019.0
20260502114733 74 216 2.0 6.0 0.00 0.00 0.00 51 1019.0
20260502114300 74 258 5.0 6.0 0.00 0.00 0.00 50 1019.2
20260502113738 74 329 1.0 4.0 0.00 0.00 0.00 50 1019.3
20260502113223 73 179 1.0 4.0 0.00 0.00 0.00 51 1019.3
20260502112723 73 211 1.0 6.0 0.00 0.00 0.00 51 1019.4
20260502112230 72 267 4.0 6.0 0.00 0.00 0.00 50 1019.5
20260502111728 72 233 3.0 8.0 0.00 0.00 0.00 51 1019.6
20260502111228 72 228 4.0 8.0 0.00 0.00 0.00 53 1019.6
20260502110734 72 246 1.0 5.0 0.00 0.00 0.00 53 1019.7
20260502110245 72 203 4.0 6.0 0.00 0.00 0.00 52 1019.8
20260502105759 71 250 3.0 7.0 0.00 0.00 0.00 53 1019.9
20260502105237 71 242 2.0 8.0 0.00 0.00 0.00 54 1019.9
20260502104744 71 241 4.0 8.0 0.00 0.00 0.00 53 1020.1
20260502104223 70 243 4.0 8.0 0.00 0.00 0.00 53 1020.0
20260502103722 70 213 3.0 8.0 0.00 0.00 0.00 54 1020.3
20260502103222 70 265 4.0 8.0 0.00 0.00 0.00 53 1020.3
20260502102728 71 266 5.0 8.0 0.00 0.00 0.00 53 1020.3
20260502102227 70 179 2.0 5.0 0.00 0.00 0.00 54 1020.4
20260502101735 70 199 1.0 8.0 0.00 0.00 0.00 55 1020.5
20260502101232 70 205 4.0 8.0 0.00 0.00 0.00 54 1020.6
20260502100731 70 210 2.0 5.0 0.00 0.00 0.00 53 1020.5
20260502100250 70 216 2.0 5.0 0.00 0.00 0.00 52 1020.6
20260502091233 67 247 4.0 8.0 0.00 0.00 0.00 55 1021.3
20260502090731 67 191 1.0 7.0 0.00 0.00 0.00 55 1021.3
20260502090309 67 239 4.0 10.0 0.00 0.00 0.00 54 1021.4
20260502071239 63 187 0.0 0.0 0.00 0.00 0.00 59 1022.1
20260502070745 63 184 0.0 0.0 0.00 0.00 0.00 63 1022.1
20260502070236 62 184 0.0 0.0 0.00 0.00 0.00 62 1022.0
20260502065723 63 188 0.0 0.0 0.00 0.00 0.00 63 1022.1
20260502065227 61 188 0.0 0.0 0.00 0.00 0.00 66 1022.3
20260502064725 60 188 0.0 0.0 0.00 0.00 0.00 66 1022.2
20260502064225 60 188 0.0 0.0 0.00 0.00 0.00 69 1022.2
20260502063731 58 193 0.0 0.0 0.00 0.00 0.00 72 1022.1
20260502063230 56 193 0.0 0.0 0.00 0.00 0.00 74 1022.0
20260502062729 54 193 0.0 0.0 0.00 0.00 0.00 74 1022.2
20260502062234 54 193 0.0 0.0 0.00 0.00 0.00 74 1022.3
20260502061734 53 193 0.0 0.0 0.00 0.00 0.00 75 1022.3
20260502061239 53 193 0.0 0.0 0.00 0.00 0.00 77 1022.2
20260502060738 53 193 0.0 0.0 0.00 0.00 0.00 77 1022.2
20260502060257 52 194 0.0 0.0 0.00 0.00 0.00 78 1022.2
20260502055739 51 195 0.0 0.0 0.00 0.00 0.00 80 1022.2
20260502055245 50 195 0.0 0.0 0.00 0.00 0.00 81 1022.2
20260502054724 50 195 0.0 0.0 0.00 0.00 0.00 81 1022.2
20260502054223 48 195 0.0 0.0 0.00 0.00 0.00 83 1022.1
20260502053730 48 195 0.0 0.0 0.00 0.00 0.00 82 1022.3
20260502053229 47 195 0.0 0.0 0.00 0.00 0.00 83 1022.3
20260502052729 47 195 0.0 0.0 0.00 0.00 0.00 83 1022.3
20260502052233 47 195 0.0 0.0 0.00 0.00 0.00 83 1022.3
20260502051732 48 195 0.0 0.0 0.00 0.00 0.00 83 1022.1
20260502051232 47 195 0.0 0.0 0.00 0.00 0.00 85 1022.0
20260502050738 46 195 0.0 0.0 0.00 0.00 0.00 85 1022.0
20260502050249 46 195 0.0 0.0 0.00 0.00 0.00 85 1022.0
20260502045722 46 195 0.0 0.0 0.00 0.00 0.00 85 1021.9
20260502045221 46 195 0.0 0.0 0.00 0.00 0.00 85 1021.9
20260502044720 45 195 0.0 0.0 0.00 0.00 0.00 85 1021.9
20260502044224 45 195 0.0 0.0 0.00 0.00 0.00 84 1022.0
20260502043729 46 195 0.0 0.0 0.00 0.00 0.00 85 1022.0
20260502043229 45 195 0.0 0.0 0.00 0.00 0.00 85 1022.0
20260502042735 45 195 0.0 0.0 0.00 0.00 0.00 84 1021.9
20260502042234 46 195 0.0 0.0 0.00 0.00 0.00 84 1021.9
20260502041732 46 195 0.0 0.0 0.00 0.00 0.00 84 1021.9
20260502041235 46 195 0.0 0.0 0.00 0.00 0.00 84 1021.9
20260502040734 46 195 0.0 0.0 0.00 0.00 0.00 84 1021.9
20260502040311 46 195 0.0 0.0 0.00 0.00 0.00 85 1021.9
20260502035743 45 195 0.0 0.0 0.00 0.00 0.00 85 1021.9
20260502035222 45 195 0.0 0.0 0.00 0.00 0.00 84 1021.8
20260502034741 46 195 0.0 0.0 0.00 0.00 0.00 84 1021.8
20260502034242 46 195 0.0 2.0 0.00 0.00 0.00 82 1021.9
20260502033729 47 195 1.0 2.0 0.00 0.00 0.00 81 1021.9
20260502033227 47 83 0.0 1.0 0.00 0.00 0.00 83 1021.7
20260502032726 47 83 0.0 0.0 0.00 0.00 0.00 83 1021.7
20260502032232 47 83 0.0 0.0 0.00 0.00 0.00 83 1021.7
20260502031731 47 83 0.0 0.0 0.00 0.00 0.00 83 1021.8
20260502031237 46 83 0.0 0.0 0.00 0.00 0.00 83 1021.8
20260502030736 47 83 0.0 0.0 0.00 0.00 0.00 82 1021.9
20260502030234 47 83 0.0 0.0 0.00 0.00 0.00 83 1022.0
20260502025741 46 83 0.0 1.0 0.00 0.00 0.00 83 1022.0
20260502025227 46 83 0.0 1.0 0.00 0.00 0.00 83 1022.0
20260502024726 47 83 0.0 1.0 0.00 0.00 0.00 81 1021.9
20260502024226 47 83 0.0 0.0 0.00 0.00 0.00 81 1021.9
20260502023732 48 83 0.0 0.0 0.00 0.00 0.00 81 1021.9
20260502023231 48 83 0.0 0.0 0.00 0.00 0.00 81 1021.8
20260502022738 47 83 0.0 0.0 0.00 0.00 0.00 81 1021.8
20260502022237 47 83 0.0 0.0 0.00 0.00 0.00 81 1021.9
20260502021737 48 83 0.0 0.0 0.00 0.00 0.00 80 1021.9
20260502021239 48 83 0.0 0.0 0.00 0.00 0.00 80 1021.9
20260502020807 48 83 0.0 0.0 0.00 0.00 0.00 80 1021.9
20260502020234 48 83 0.0 0.0 0.00 0.00 0.00 79 1021.9
20260502015747 48 83 0.0 0.0 0.00 0.00 0.00 79 1022.0
20260502015223 48 83 0.0 0.0 0.00 0.00 0.00 80 1022.0
20260502014723 48 83 0.0 0.0 0.00 0.00 0.00 79 1022.0
20260502014221 49 83 0.0 0.0 0.00 0.00 0.00 78 1022.1
20260502013728 49 83 0.0 0.0 0.00 0.00 0.00 79 1022.0
20260502013226 48 83 0.0 0.0 0.00 0.00 0.00 80 1022.0
20260502012726 48 83 0.0 0.0 0.00 0.00 0.00 79 1022.1
20260502012253 48 83 0.0 0.0 0.00 0.00 0.00 78 1022.0
20260502011739 49 83 0.0 0.0 0.00 0.00 0.00 77 1022.0
20260502011259 49 83 0.0 0.0 0.00 0.00 0.00 78 1022.0
20260502010741 49 83 0.0 0.0 0.00 0.00 0.00 79 1022.0
20260502010254 49 83 0.0 0.0 0.00 0.00 0.00 78 1022.0
20260502005746 49 83 0.0 0.0 0.00 0.00 0.00 78 1021.9
20260502005225 49 83 0.0 0.0 0.00 0.00 0.00 77 1021.9